Sidney, NE

10:07 PM MDT on March 27, 2017 (GMT -0600)
Sidney Municipal

Weather History for KSNY - November, 2011

Change the Weather History Date:

Monday, November 14, 2011

  Actual Average Record
Temperature  
Mean Temperature 44 °F 38 °F  
Max Temperature 59 °F 52 °F 75 °F (1953)
Min Temperature 28 °F 25 °F -3 °F (1959)
Degree Days  
Heating Degree Days 21 27  
Month to date heating degree days 360 331  
Since 1 July heating degree days 921 934  
Cooling Degree Days 0 0  
Month to date cooling degree days 0 0  
Year to date cooling degree days 960 830  
Moisture  
Dew Point 15 °F    
Average Humidity 41    
Maximum Humidity 69    
Minimum Humidity 13    
Precipitation  
Precipitation 0.00 in 0.02 in 0.16 in (1980)
Month to date precipitation 0.51 0.26  
Year to date precipitation 27.51 17.69  
Sea Level Pressure  
Sea Level Pressure 29.65 in    
Wind  
Wind Speed 17 mph (West)    
Max Wind Speed 36 mph    
Max Gust Speed 46 mph    
Visibility 10 miles    
Events      
T = Trace of Precipitation, MM = Missing Value Source: NWS Daily Summary

Daily Weather History Graph

Daily Weather History Graph

Search for Another Location

Airport or City:

Trip Planner

Search our weather history database for the weather conditions in past years. The results will help you decide how hot, cold, wet, or windy it might be!

Date:

Astronomy

Nov. 14, 2011 Rise Set
Actual Time 6:38 AM MST 4:34 PM MST
Civil Twilight 6:08 AM MST 5:03 PM MST
Nautical Twilight 5:35 AM MST 5:36 PM MST
Astronomical Twilight 5:03 AM MST 6:09 PM MST
Moon 7:42 PM MST (11/14) 9:59 AM MST (11/14)
Length of Visible Light 10h 54m
Length of Day
9h 55m
Waning Gibbous, 86% of the Moon is Illuminated
Nov 14
Waning Gibbous
Nov 18
Last Quarter
Nov 24
New
Dec 2
First Quarter
Dec 10
Full

Hourly Weather History & Observations

Time (MST) Temp. Windchill Dew Point Humidity Pressure Visibility Wind Dir Wind Speed Gust Speed Precip Events Conditions
12:53 AM 32.0 °F 23.0 °F 21.0 °F 64% 29.64 in 10.0 mi West 11.5 mph - N/A   Clear
1:53 AM 30.9 °F 22.2 °F 21.0 °F 67% 29.65 in 10.0 mi WSW 10.4 mph - N/A   Clear
2:53 AM 32.0 °F 23.0 °F 21.0 °F 64% 29.65 in 10.0 mi West 11.5 mph - N/A   Clear
3:53 AM 36.0 °F 26.7 °F 21.0 °F 55% 29.66 in 10.0 mi West 15.0 mph - N/A   Clear
4:53 AM 36.0 °F 27.5 °F 19.0 °F 50% 29.68 in 10.0 mi WNW 12.7 mph - N/A   Clear
5:53 AM 32.0 °F 23.6 °F 18.0 °F 56% 29.72 in 10.0 mi WSW 10.4 mph - N/A   Clear
6:53 AM 32.0 °F 23.0 °F 18.0 °F 56% 29.71 in 10.0 mi WNW 11.5 mph - N/A   Clear
7:53 AM 39.9 °F 33.4 °F 19.0 °F 43% 29.69 in 10.0 mi West 10.4 mph - N/A   Clear
8:53 AM 46.9 °F - 18.0 °F 32% 29.68 in 10.0 mi West 20.7 mph 24.2 mph N/A   Clear
9:53 AM 51.1 °F - 17.1 °F 26% 29.69 in 10.0 mi West 20.7 mph 31.1 mph N/A   Clear
10:53 AM 55.9 °F - 12.0 °F 18% 29.67 in 10.0 mi West 27.6 mph 38.0 mph N/A   Clear
12:53 PM 57.0 °F - 9.0 °F 15% 29.61 in 10.0 mi West 29.9 mph 42.6 mph N/A   Clear
1:53 PM 59.0 °F - 8.1 °F 13% 29.58 in 10.0 mi WNW 27.6 mph 40.3 mph N/A   Clear
2:53 PM 55.9 °F - 9.0 °F 15% 29.57 in 10.0 mi West 26.5 mph 39.1 mph N/A   Clear
3:53 PM 55.0 °F - 9.0 °F 16% 29.57 in 10.0 mi West 26.5 mph 35.7 mph N/A   Partly Cloudy
4:53 PM 51.1 °F - 10.9 °F 20% 29.59 in 10.0 mi West 18.4 mph 26.5 mph N/A   Scattered Clouds
6:53 PM 41.0 °F 34.3 °F 14.0 °F 33% 29.67 in 10.0 mi West 11.5 mph - N/A   Clear
7:53 PM 37.0 °F 28.9 °F 15.1 °F 41% 29.67 in 10.0 mi West 12.7 mph - N/A   Clear
8:53 PM 39.9 °F 30.5 °F 14.0 °F 35% 29.66 in 10.0 mi West 19.6 mph 25.3 mph N/A   Clear
9:53 PM 37.9 °F 29.2 °F 14.0 °F 38% 29.67 in 10.0 mi West 15.0 mph - N/A   Clear
10:53 PM 34.0 °F 25.5 °F 14.0 °F 44% 29.68 in 10.0 mi West 11.5 mph - N/A   Clear
11:53 PM 36.0 °F 28.5 °F 14.0 °F 41% 29.66 in 10.0 mi West 10.4 mph - N/A   Clear